Theta_e
290 291 291 291 291 290 290 290 292 292 294 297 299 299 300 300 301 294 288 290 286 280 284 284 285 282 285 289 287 286 288 286 285 285 284 282 277 278 276 279 279 279 277 276 267 277 276 282 283 285 287 284 286 287
290 291 291 291 291 291 290 290 291 291 292 295 297 299 299 300 301 297 290 291 290 286 284 287 287 286 285 285 287 288 286 288 290 286 284 279 274 275 275 276 281 276 282 278 282 281 284 283 284 285 287 287 286 286
291 291 290 291 291 291 291 291 291 291 291 294 298 298 299 299 300 296 292 288 285 277 283 281 283 288 288 288 289 288 286 288 285 285 282 280 279 277 276 271 276 280 280 282 282 281 283 284 285 285 285 285 286 286
291 291 290 290 291 290 290 291 291 293 292 296 297 298 298 298 299 296 290 291 285 279 278 280 287 285 288 289 291 292 290 289 286 285 284 281 279 279 276 282 282 283 284 278 277 280 283 285 285 286 285 285 285 285
291 289 289 291 290 290 290 291 291 293 292 294 296 296 297 298 297 293 292 292 291 282 276 279 284 286 287 290 291 291 290 287 285 285 284 282 281 280 276 279 279 282 282 284 283 285 285 286 286 285 284 284 285 285
291 290 290 290 291 289 290 291 291 293 294 294 295 296 297 297 294 286 282 291 293 288 281 275 282 282 284 286 285 285 285 285 285 284 280 281 281 280 278 276 280 283 284 285 285 285 284 284 285 284 284 284 284 283
290 291 291 291 292 291 290 291 292 292 293 294 295 296 296 295 288 280 279 286 292 288 278 276 276 282 283 283 283 283 284 282 284 282 280 281 281 278 269 270 279 282 284 283 284 286 285 285 284 285 284 283 279 277
290 290 291 291 291 292 292 291 291 292 293 294 295 295 296 296 292 286 288 295 290 282 280 274 273 278 282 280 278 280 280 281 279 279 280 279 279 277 278 277 279 281 280 281 280 281 283 282 280 278 278 279 280 278
288 289 289 291 291 291 291 292 292 290 291 293 294 295 288 285 279 284 294 293 289 283 275 269 272 272 280 279 279 280 280 276 279 277 278 279 274 277 277 278 279 280 280 279 278 279 278 279 278 278 277 276 278 275
286 288 288 288 289 290 290 291 291 292 292 293 286 274 275 281 290 292 287 283 282 280 274 268 268 272 278 276 275 275 275 273 272 275 277 272 273 278 276 276 279 279 278 277 279 278 275 274 274 272 272 272 273 272
285 286 287 288 288 288 288 289 289 289 287 281 277 269 281 289 284 282 274 276 273 274 272 266 269 274 277 274 272 275 272 271 270 272 272 267 271 275 273 270 271 273 273 272 273 273 273 275 274 273 270 268 268 266
284 285 286 286 287 287 287 288 287 281 280 280 280 283 280 273 271 271 267 274 269 268 264 269 271 274 272 275 272 271 266 268 266 269 268 264 271 266 267 266 265 266 267 266 267 267 267 266 267 266 263 261 261 261
283 283 284 285 286 286 286 287 287 287 283 278 277 271 269 268 269 268 263 269 264 264 268 273 273 273 271 274 268 269 265 263 265 265 264 266 265 261 261 262 262 261 262 262 261 262 262 260 259 259 258 256 254 254
282 282 284 285 286 286 285 285 283 280 274 271 265 261 263 263 260 260 257 257 264 265 269 271 269 271 267 269 267 266 264 264 262 261 264 263 257 257 258 258 260 257 256 257 256 257 257 257 255 254 253 253 255 254
283 282 284 284 285 285 284 281 278 266 264 263 266 261 256 258 257 257 256 257 262 263 268 271 271 273 268 269 266 263 262 260 262 264 261 255 254 254 253 253 254 254 254 253 251 251 252 253 252 250 249 249 250 250
283 283 281 283 283 282 281 269 263 262 255 258 255 259 257 256 258 257 259 259 263 262 266 272 272 271 269 270 264 262 263 260 263 251 251 251 251 250 249 250 250 250 250 250 250 249 249 248 247 246 244 246 247 245
281 273 283 283 281 277 275 259 260 255 253 253 253 250 253 254 255 256 255 259 262 262 269 271 269 267 270 265 261 255 259 254 249 250 249 247 246 247 247 248 248 248 248 248 248 249 246 247 246 248 250 248 245 244
270 273 282 282 269 268 256 255 254 255 252 252 254 254 256 257 257 258 258 259 259 264 270 267 267 266 261 261 260 253 251 249 248 249 249 247 245 245 245 244 245 246 247 246 246 244 245 248 248 246 244 244 245 246
278 276 280 279 270 258 256 254 254 252 249 249 253 253 256 257 258 258 257 257 258 260 264 266 263 257 255 252 250 248 248 247 247 247 246 244 242 243 245 245 245 244 244 244 245 246 246 245 247 247 247 247 247 246
278 279 278 275 270 258 255 253 252 253 250 253 253 254 254 256 256 255 256 254 255 257 253 254 252 251 251 249 247 245 246 246 242 244 245 245 244 242 243 242 244 242 242 242 242 246 244 245 244 244 243 245 245 246
271 271 272 263 257 255 252 250 252 250 250 251 251 251 253 253 253 251 251 250 252 248 249 248 248 248 247 246 247 247 246 245 244 244 244 244 243 242 242 242 240 240 242 241 242 243 243 243 244 243 241 242 242 243
263 270 259 262 257 254 254 255 254 257 256 252 252 250 249 252 248 246 246 250 246 245 245 244 244 242 244 243 242 241 242 241 240 241 244 243 243 244 244 243 243 244 243 243 242 243 243 244 243 242 241 244 245 244
263 262 257 255 256 254 251 255 258 254 257 255 256 255 251 248 246 248 245 240 242 241 239 239 240 239 241 240 237 239 239 239 239 239 241 243 244 245 244 244 242 244 247 249 246 245 245 247 248 246 244 244 243 243
258 249 249 248 249 246 248 249 250 249 248 247 247 250 248 244 245 249 246 241 244 238 238 239 235 240 239 238 240 240 240 238 238 239 242 241 243 245 245 248 251 251 250 251 249 249 248 248 248 246 244 241 240 241
254 245 246 245 245 246 245 246 245 247 243 240 244 246 244 238 246 245 245 246 242 240 240 236 235 236 240 238 239 239 237 240 240 241 243 241 241 242 244 247 248 252 252 250 250 250 250 247 247 244 244 244 242 243
243 239 242 237 241 243 240 244 241 240 237 243 241 239 236 242 247 247 245 244 241 241 241 241 242 240 239 240 240 240 242 236 237 238 242 240 241 242 241 242 244 247 244 246 246 246 246 246 243 243 244 243 244 243
246 242 238 236 236 237 239 237 236 238 240 242 238 240 241 246 245 247 244 241 243 243 240 239 241 242 244 243 241 242 239 236 242 244 240 239 241 242 244 245 245 246 241 241 241 242 243 243 242 243 243 243 242 242
237 234 240 238 236 232 238 234 237 240 238 235 235 243 246 246 248 247 247 242 238 235 235 237 239 241 241 243 243 240 240 235 235 239 241 243 243 244 244 246 247 251 244 243 244 243 241 243 243 243 242 243 245 244
236 231 232 239 235 236 237 240 239 236 235 233 239 240 242 242 241 239 241 236 231 235 239 242 242 232 237 239 240 240 239 236 240 244 243 246 244 247 242 242 242 242 242 242 246 250 245 244 244 244 244 245 246 247
236 229 236 234 239 243 239 234 234 229 229 231 229 234 237 238 239 234 234 234 238 243 242 239 236 235 242 238 243 243 240 240 242 246 246 248 248 243 238 240 241 242 242 240 243 245 248 248 248 244 244 244 244 246
230 230 235 233 237 235 231 225 223 224 226 226 224 230 235 235 237 239 238 238 237 234 236 243 243 238 239 239 237 238 248 243 242 243 245 247 247 247 247 247 247 246 244 244 244 244 245 244 244 244 244 244 245 246
232 233 237 241 240 232 227 228 228 229 228 229 231 224 231 233 240 247 242 237 236 238 244 243 241 248 246 247 246 246 249 250 246 245 244 246 246 247 248 248 247 246 244 245 245 244 244 243 244 245 245 245 245 245
230 228 229 233 238 240 235 235 235 237 233 233 234 232 231 236 245 249 243 243 249 249 250 250 250 250 248 247 248 249 249 249 249 253 254 253 251 251 250 249 248 246 245 245 246 246 245 245 244 245 245 245 245 246
Wind_Speed
14 15 14 12 10 8 7 6 2 3 7 11 13 11 12 11 14 4 2 2 3 2 2 1 1 1 2 3 10 8 9 4 3 6 6 6 4 8 5 7 10 12 11 7 4 11 22 6 4 23 8 3 5 4
16 16 14 11 10 8 8 6 5 2 2 9 7 11 9 10 14 5 3 1 2 4 2 0 1 2 2 4 0 7 3 10 6 6 3 5 2 2 6 6 2 4 9 10 14 11 2 6 1 2 3 5 4 2
19 17 13 11 10 8 10 8 5 4 5 17 16 12 11 9 15 7 3 3 4 3 1 1 3 1 5 4 6 4 2 5 2 1 6 3 5 4 6 5 5 3 2 5 6 4 6 7 4 4 3 2 3 1
21 13 8 9 9 7 9 8 8 8 8 9 16 13 11 9 12 8 4 2 3 2 3 1 2 2 8 10 4 3 5 4 6 2 4 4 4 2 3 4 3 5 10 6 3 2 1 5 8 6 5 5 4 3
16 7 8 10 7 6 8 10 9 10 3 3 11 10 8 12 13 8 3 3 2 3 4 2 3 4 8 6 7 9 6 6 2 3 3 3 2 5 2 2 4 6 8 9 8 7 4 4 9 6 7 6 6 6
21 15 12 9 8 3 7 11 11 8 12 8 10 9 12 14 8 4 3 2 1 1 3 1 2 4 4 6 9 11 5 4 4 3 3 2 1 1 4 4 3 3 2 2 4 5 3 4 6 4 7 6 5 6
25 22 17 11 13 7 5 10 10 8 7 10 10 9 10 10 4 4 4 2 4 2 3 3 3 3 4 4 3 3 4 3 3 2 3 3 3 2 2 3 2 5 5 5 5 7 6 3 6 6 8 7 7 5
26 21 26 16 9 13 12 8 8 5 7 11 12 10 12 15 9 4 3 7 5 2 3 3 2 2 5 3 2 3 3 2 5 2 2 2 2 1 2 2 3 6 7 6 5 4 3 7 7 6 5 3 8 7
23 21 21 23 21 18 15 16 12 6 5 8 14 13 5 4 3 0 9 9 4 3 3 2 4 3 2 2 2 3 3 4 2 2 3 3 2 1 1 3 4 5 2 8 5 7 8 9 8 5 5 5 9 4
17 20 21 22 24 22 18 16 14 15 12 12 6 6 2 2 7 2 2 2 2 2 3 3 2 3 2 1 2 2 2 1 2 2 2 4 1 2 8 7 6 6 7 3 9 7 5 6 5 4 6 5 5 5
15 16 17 20 21 21 19 14 8 10 12 4 3 2 2 5 2 2 2 2 1 2 2 1 2 4 2 3 3 2 2 1 3 2 3 1 1 4 9 12 11 10 10 11 9 10 9 7 7 9 7 7 6 5
12 12 13 15 17 18 19 17 8 4 1 3 3 4 2 4 4 3 1 2 1 5 2 2 2 2 1 1 4 2 3 2 2 2 4 1 1 7 8 10 11 11 10 11 10 10 10 11 7 8 7 5 5 5
9 9 10 11 14 17 17 17 11 11 5 1 3 5 4 3 3 5 5 2 1 4 2 1 3 2 1 3 4 3 5 1 2 3 3 2 4 7 6 5 7 10 9 9 10 8 9 9 9 6 6 4 3 4
7 7 8 10 15 15 16 16 11 5 4 4 3 5 3 2 2 1 2 3 2 3 3 1 2 2 0 5 1 6 2 3 4 3 4 1 4 5 6 7 5 6 7 8 7 6 8 8 7 7 6 4 3 6
7 6 11 14 17 17 14 13 12 6 5 5 4 3 3 2 1 1 3 1 2 3 3 0 3 3 3 5 3 4 4 0 4 5 1 2 4 4 6 6 7 6 6 5 5 6 6 5 6 5 5 4 5 3
15 12 8 14 14 20 14 10 8 5 6 5 10 3 2 3 3 3 4 2 3 5 3 2 3 3 3 3 3 4 7 6 4 1 2 4 2 4 4 5 5 5 5 5 5 4 4 5 2 1 2 4 5 4
12 3 20 16 12 9 21 7 6 10 6 6 3 2 2 1 1 2 2 3 5 4 2 2 4 2 2 3 2 2 4 1 1 1 1 2 3 5 5 4 5 5 5 5 4 5 3 3 1 3 5 6 4 3
3 6 18 17 6 7 6 8 7 6 8 3 4 3 2 2 3 2 4 3 4 4 3 3 2 4 3 3 1 0 1 1 2 1 1 2 3 4 3 3 4 3 3 3 3 3 3 5 5 3 3 4 4 5
10 10 21 18 9 7 6 7 5 6 1 1 2 2 2 2 1 2 4 4 3 2 2 3 6 3 1 2 1 1 1 1 2 2 2 2 2 3 3 3 2 3 4 3 3 2 2 1 1 2 2 2 1 2
11 21 21 20 11 6 7 5 3 6 3 1 1 3 1 2 4 3 4 6 4 4 9 7 3 1 1 0 2 2 2 1 1 3 3 2 1 2 2 1 1 3 3 2 1 1 3 2 1 2 2 2 1 3
11 10 16 9 6 8 6 3 5 2 1 3 2 2 2 3 4 6 6 6 6 6 3 2 1 1 2 2 2 1 2 1 3 3 3 3 2 2 3 2 2 0 1 1 1 3 2 2 3 2 2 3 3 4
3 12 5 8 6 5 6 3 1 2 3 2 4 2 4 4 4 4 5 6 4 1 2 2 2 1 3 3 2 3 3 2 2 3 4 3 4 3 3 2 2 3 2 3 2 2 3 3 3 3 2 4 3 3
8 7 6 8 8 9 3 4 3 6 4 4 3 4 4 4 2 4 5 2 3 2 2 3 3 2 3 4 3 5 6 5 3 3 4 4 4 4 4 4 3 3 3 3 2 2 3 4 4 3 2 3 1 3
12 10 9 7 8 3 4 7 4 5 4 6 5 4 5 4 7 5 3 3 4 1 2 3 1 3 2 2 2 3 4 4 2 4 4 3 3 4 3 3 3 4 5 3 3 3 3 3 3 3 2 2 3 3
11 13 8 10 5 7 9 7 7 6 3 3 3 4 4 5 4 4 1 4 3 2 2 1 1 2 3 3 3 4 3 4 3 4 4 4 2 3 4 4 3 5 3 3 4 4 3 2 3 2 3 4 6 6
12 7 7 2 4 5 2 5 5 4 3 5 2 3 3 3 4 2 4 3 3 3 3 3 2 1 3 5 3 2 4 4 4 2 5 4 4 4 3 3 4 6 3 3 3 4 4 3 3 6 6 7 8 6
8 6 4 0 2 1 2 2 0 2 4 3 4 6 4 4 2 5 3 3 3 4 4 3 4 4 5 4 4 5 4 4 6 5 3 4 5 5 6 7 8 6 3 5 5 5 6 6 6 6 7 5 6 6
3 3 1 5 2 0 2 1 2 2 3 2 1 3 2 5 5 4 5 2 2 1 3 4 5 5 5 6 5 4 4 2 4 6 7 8 9 7 8 8 9 11 5 5 6 5 6 8 8 8 8 10 10 5
2 2 1 3 3 1 2 2 3 3 2 3 2 4 5 4 4 3 3 1 1 2 4 4 3 1 4 5 6 5 3 3 2 4 5 5 4 5 5 5 4 4 4 5 10 12 10 10 10 10 12 10 10 8
4 1 2 1 2 2 3 3 3 2 2 2 1 4 4 6 6 2 2 1 2 5 4 3 2 1 4 1 5 6 4 7 8 7 5 6 6 3 3 4 5 5 4 5 7 8 11 9 8 5 6 7 6 8
1 2 2 0 4 3 3 1 1 1 1 1 1 3 5 7 8 4 5 4 3 1 2 5 4 5 4 4 4 3 7 4 8 11 10 8 7 7 8 7 7 6 5 7 7 8 8 7 8 9 10 13 14 12
3 3 1 4 5 2 2 3 2 1 2 1 3 1 5 4 5 5 4 5 3 2 8 5 4 7 7 7 5 5 9 7 5 8 11 10 10 11 10 8 7 6 7 9 9 9 10 12 11 11 12 15 15 15
2 0 1 3 5 6 4 5 3 5 1 3 4 4 3 3 7 5 2 7 6 5 5 6 6 6 7 8 9 8 9 9 12 14 16 17 17 15 9 7 7 8 9 10 10 10 13 15 14 16 16 17 17 17
Wind_Direction
356 349 348 343 326 310 293 285 150 44 23 331 198 195 181 175 163 110 136 96 115 108 90 344 345 32 330 233 171 157 127 231 180 116 167 180 160 211 124 165 175 158 160 196 98 219 254 158 35 177 203 233 182 201
342 338 331 326 321 297 270 253 190 88 12 315 212 170 168 167 159 105 93 49 89 77 98 172 137 99 289 290 297 204 182 151 160 129 173 120 148 140 141 188 272 194 183 171 187 208 222 200 169 185 182 169 214 159
337 326 320 316 313 286 263 245 213 101 318 302 177 153 152 151 156 126 111 94 56 94 40 95 26 295 291 259 264 170 333 143 134 191 141 146 156 138 173 232 108 268 189 172 103 228 208 192 210 209 204 136 122 68
332 325 329 323 303 272 246 233 211 133 249 180 129 126 124 127 127 115 111 125 90 108 101 254 284 327 300 295 241 226 136 85 104 76 100 120 140 161 208 152 151 174 138 158 292 288 342 237 211 162 137 112 112 92
354 2 351 340 336 247 231 212 196 160 222 63 117 117 121 118 108 88 78 92 75 123 169 177 220 323 342 357 23 51 79 108 67 104 97 134 97 104 307 57 217 184 164 180 213 193 156 214 157 162 139 150 154 130
21 19 14 10 350 228 224 199 183 183 165 156 122 110 127 124 113 80 72 98 189 330 116 106 274 1 337 7 32 39 25 58 73 67 93 98 43 158 163 196 245 151 122 70 157 128 89 87 106 121 126 131 94 92
24 23 17 22 31 50 154 172 162 172 180 149 124 100 126 102 67 85 162 196 125 316 81 63 16 1 340 360 9 356 31 46 80 150 109 128 132 126 131 158 173 138 109 89 82 121 79 186 155 118 114 107 85 82
14 24 21 11 63 62 61 153 167 166 168 142 117 88 111 91 84 46 342 104 104 65 55 109 311 27 15 5 16 342 39 19 24 72 89 91 93 339 61 265 131 115 112 84 53 45 71 99 75 77 64 79 87 69
6 11 40 28 65 62 71 79 68 96 71 136 111 110 60 38 65 213 95 80 75 98 140 106 135 186 22 46 350 17 17 49 349 43 49 32 10 68 292 227 154 155 138 136 87 79 78 90 96 86 89 60 103 92
18 13 24 35 38 46 52 60 68 65 73 98 62 52 37 345 321 220 31 23 32 29 36 98 310 118 74 15 38 80 23 80 82 341 30 52 208 86 22 23 51 54 77 86 107 96 93 83 98 70 65 51 61 76
17 16 24 31 35 34 28 43 78 70 42 36 71 83 245 300 51 18 74 142 311 51 20 241 181 120 336 112 134 2 171 6 100 233 135 278 265 79 32 36 18 32 49 48 69 71 60 78 110 108 80 59 60 61
20 17 18 20 28 25 24 29 58 53 82 143 111 109 57 42 47 101 247 342 31 203 295 141 181 127 176 97 97 337 114 33 152 273 82 196 140 44 36 31 21 20 36 54 44 68 64 66 60 88 80 62 45 44
16 16 17 19 23 16 18 22 40 104 69 9 74 67 66 316 107 164 196 192 351 344 293 158 91 118 66 56 63 78 67 172 239 55 204 221 64 35 14 1 35 20 33 48 46 50 65 68 52 55 88 54 78 68
12 11 11 26 18 9 10 14 22 117 94 74 82 55 68 74 14 115 169 200 283 295 290 59 82 84 321 62 168 89 259 59 48 48 240 71 30 351 8 11 49 23 23 45 41 49 64 71 69 52 50 25 46 60
39 53 43 28 15 7 9 24 32 46 58 67 41 64 57 254 276 255 221 344 323 285 282 167 73 81 23 95 49 102 44 304 192 218 146 40 353 354 19 12 17 15 11 27 15 28 40 58 86 80 30 23 43 49
40 37 23 17 12 13 9 29 29 68 54 56 33 52 341 69 355 21 353 334 9 317 268 253 92 75 61 110 98 188 122 200 228 12 336 324 6 17 5 357 357 353 1 8 22 15 26 34 54 110 356 32 28 39
61 23 358 3 11 23 24 64 38 45 77 47 37 34 316 224 204 294 323 317 324 283 64 78 71 98 116 76 64 12 166 236 256 328 330 321 327 337 337 337 352 355 4 10 5 14 354 320 333 55 42 355 349 344
45 316 12 7 41 44 33 36 73 60 57 15 53 332 329 355 323 322 331 327 325 347 4 68 101 59 59 116 326 186 6 304 214 264 312 318 333 326 299 302 324 340 348 355 359 318 353 28 40 16 335 324 335 2
37 19 20 23 58 82 59 21 42 87 19 303 307 299 305 301 232 302 314 323 285 293 328 40 59 60 72 25 310 334 315 327 307 308 272 254 216 331 318 324 313 350 348 335 350 346 323 267 259 303 306 346 356 312
15 21 16 26 40 66 52 8 48 82 73 271 27 348 314 327 324 336 349 9 3 29 37 40 52 42 48 69 193 216 241 219 59 336 320 299 217 334 315 278 304 295 306 327 331 18 5 9 287 264 289 266 291 287
24 350 11 44 43 59 85 356 38 122 202 89 264 51 324 6 16 9 353 340 54 38 58 353 350 303 357 311 316 294 292 172 220 191 223 290 291 291 294 296 287 329 41 344 347 322 13 249 260 281 262 265 239 245
329 10 44 14 68 43 76 7 52 297 51 235 25 34 29 19 357 353 311 41 59 234 190 204 251 281 329 310 278 217 261 252 301 295 290 302 304 335 320 260 354 311 296 249 205 236 262 261 271 262 240 279 289 276
17 27 43 13 63 40 311 338 49 6 38 357 348 34 15 348 281 310 71 184 234 243 209 220 246 235 248 296 300 263 217 195 238 240 257 244 245 252 261 266 210 231 281 278 190 220 257 282 294 302 307 312 322 295
33 46 34 39 23 9 337 19 22 24 31 24 19 15 353 319 322 44 60 276 247 249 206 218 177 322 302 272 260 248 239 172 240 284 244 219 267 276 223 244 233 229 232 259 247 257 259 266 295 306 310 302 296 285
63 1 26 4 0 21 24 2 354 28 37 333 28 355 339 346 44 41 299 279 317 297 273 335 41 199 205 269 285 277 242 165 197 253 268 206 226 319 301 258 243 249 202 227 243 239 244 249 266 280 277 274 275 281
65 328 44 302 325 46 348 15 14 348 350 348 333 283 10 39 56 270 246 238 242 225 227 202 199 312 285 209 234 274 253 177 135 205 266 199 196 188 229 259 297 291 206 192 164 223 240 246 268 285 279 265 254 259
53 341 336 204 130 116 17 359 21 64 22 2 317 343 23 58 278 257 279 228 215 225 207 188 173 193 229 253 239 249 228 193 210 227 247 235 227 209 203 236 243 236 174 177 185 197 222 241 254 255 264 265 236 233
130 15 21 320 10 70 131 59 41 17 268 227 63 354 153 193 236 239 213 247 223 296 268 246 222 223 238 246 254 269 273 239 266 262 262 250 238 230 223 232 241 241 214 204 213 213 218 234 243 247 247 260 271 225
39 311 166 339 332 12 185 152 232 239 193 118 161 267 255 240 251 245 266 218 94 39 307 309 297 325 269 257 251 240 221 149 64 313 299 281 320 290 196 212 226 229 232 239 251 239 226 229 237 240 245 249 258 258
328 45 37 41 45 278 248 168 225 236 215 209 254 297 276 264 248 212 216 201 233 234 231 230 244 141 264 282 297 301 219 191 201 199 216 249 236 252 202 220 231 231 215 216 245 257 265 275 285 301 282 265 257 258
328 26 15 144 251 249 237 272 318 313 328 270 284 206 263 307 305 239 210 217 210 177 327 274 265 207 218 228 214 271 293 220 210 225 238 259 268 265 259 247 237 228 216 223 236 243 250 252 245 253 256 257 259 255
12 85 48 310 296 298 30 30 310 288 298 335 265 276 299 330 281 278 193 134 109 254 238 217 237 263 210 230 229 233 245 265 226 222 225 235 245 248 249 247 239 227 225 233 237 240 241 242 255 253 258 260 261 261
46 90 163 323 315 332 348 351 2 324 316 288 264 207 231 212 249 280 260 217 217 211 229 227 230 247 242 239 244 254 241 246 251 252 253 246 244 249 251 243 236 231 232 239 243 241 242 242 247 251 252 254 258 260